User: anonymous   Login
Location: Camp at the Woods
(43.2055°N, 93.0905°W)
Time: 13:36:55
(UTC+00:00)
Language:

Meteor 1-31 Rocket - Orbit

View from above orbital plane
View from above orbital plane
View from above satellite
View from above satellite

Ground track
Ground track

The orbit data is extracted from the following two-line orbital elements,

1 12586U 81065B   24114.93797082  .00011231  00000-0  53313-3 0  9995
2 12586  97.6958 127.6769 0014260 240.6851 119.2958 15.19339083330491
Epoch (UTC): 23 April 2024 22:30:40
Eccentricity: 0.0014260
inclination: 97.6958°
perigee height: 498 km
apogee height: 517 km
right ascension of ascending node: 127.6769°
argument of perigee: 240.6851°
revolutions per day: 15.19339083
mean anomaly at epoch: 119.2958°
orbit number at epoch: 33049

The dashed part of the orbit path shows where the satellite is in the earth's shadow,  

DLR